Time,TemperatureF,DewpointF,PressureIn,WindDirection,WindDirectionDegrees,WindSpeedMPH,WindSpeedGustMPH,Humidity,HourlyPrecipIn,Conditions,Clouds,dailyrainin,SolarRadiationWatts/m^2,SoftwareType,DateUTC
2013-09-20 00:00:00,50.9,50.1,29.77,WNW,294,3.0,8.0,97,0.00,RA,,0.00,0.0,WeatherDisplay:10.37,2013-09-19 23:00:00,
2013-09-20 00:05:00,50.8,50.0,29.77,WNW,290,3.0,6.0,97,0.00,RA,,0.00,0.0,WeatherDisplay:10.37,2013-09-19 23:05:00,
2013-09-20 00:10:00,50.8,50.0,29.78,WNW,293,5.0,8.0,97,0.00,RA,,0.00,0.0,WeatherDisplay:10.37,2013-09-19 23:10:00,
2013-09-20 00:15:00,50.7,49.9,29.78,WNW,300,3.0,12.0,97,0.00,CLR,,0.00,0.0,WeatherDisplay:10.37,2013-09-19 23:15:00,
2013-09-20 00:20:00,50.6,49.8,29.78,NW,304,5.0,7.0,97,0.00,CLR,,0.00,0.0,WeatherDisplay:10.37,2013-09-19 23:20:00,
2013-09-20 00:25:00,50.5,49.4,29.79,WNW,292,5.0,8.0,96,0.00,CLR,,0.00,0.0,WeatherDisplay:10.37,2013-09-19 23:25:00,
2013-09-20 00:30:00,50.3,49.2,29.79,WNW,292,3.0,6.0,96,0.00,CLR,,0.00,0.0,WeatherDisplay:10.37,2013-09-19 23:30:00,
2013-09-20 00:35:00,50.1,49.1,29.79,WNW,292,3.0,5.0,96,0.00,CLR,,0.00,0.0,WeatherDisplay:10.37,2013-09-19 23:35:00,
2013-09-20 00:40:00,50.0,48.9,29.80,WNW,293,2.0,5.0,96,0.00,CLR,,0.00,0.0,WeatherDisplay:10.37,2013-09-19 23:40:00,
2013-09-20 00:45:00,49.9,48.8,29.80,WNW,283,2.0,5.0,96,0.00,CLR,,0.00,0.0,WeatherDisplay:10.37,2013-09-19 23:45:00,
2013-09-20 00:50:00,49.6,48.5,29.80,WNW,284,3.0,7.0,96,0.00,CLR,,0.00,0.0,WeatherDisplay:10.37,2013-09-19 23:50:00,
2013-09-20 00:55:00,49.3,48.2,29.80,WNW,284,1.0,6.0,96,0.00,CLR,,0.00,0.0,WeatherDisplay:10.37,2013-09-19 23:55:00,
2013-09-20 01:00:00,49.0,47.9,29.80,WNW,292,3.0,6.0,96,0.00,CLR,,0.00,0.0,WeatherDisplay:10.37,2013-09-20 00:00:00,
2013-09-20 01:05:00,48.8,47.7,29.81,WNW,294,5.0,7.0,96,0.00,CLR,,0.00,0.0,WeatherDisplay:10.37,2013-09-20 00:05:00,
2013-09-20 01:10:00,48.6,47.5,29.81,WNW,289,6.0,8.0,96,0.00,CLR,,0.00,0.0,WeatherDisplay:10.37,2013-09-20 00:10:00,
2013-09-20 01:15:00,48.5,47.4,29.81,WNW,293,6.0,8.0,96,0.00,CLR,,0.00,0.0,WeatherDisplay:10.37,2013-09-20 00:15:00,
2013-09-20 01:20:00,48.3,47.2,29.82,WNW,295,6.0,8.0,96,0.00,CLR,,0.00,0.0,WeatherDisplay:10.37,2013-09-20 00:20:00,
2013-09-20 01:25:00,48.1,47.0,29.82,WNW,287,5.0,8.0,96,0.00,CLR,,0.00,0.0,WeatherDisplay:10.37,2013-09-20 00:25:00,
2013-09-20 01:30:00,48.0,46.9,29.82,West,277,2.0,10.0,96,0.00,CLR,,0.00,0.0,WeatherDisplay:10.37,2013-09-20 00:30:00,
2013-09-20 01:35:00,47.8,46.7,29.83,WNW,291,6.0,8.0,96,0.00,CLR,,0.00,0.0,WeatherDisplay:10.37,2013-09-20 00:35:00,
2013-09-20 01:40:00,47.7,46.6,29.83,WNW,283,5.0,10.0,96,0.00,CLR,,0.00,0.0,WeatherDisplay:10.37,2013-09-20 00:40:00,
2013-09-20 01:45:00,47.6,46.5,29.83,WNW,283,3.0,9.0,96,0.00,CLR,,0.00,0.0,WeatherDisplay:10.37,2013-09-20 00:45:00,
2013-09-20 01:50:00,47.5,46.4,29.83,West,277,2.0,9.0,96,0.00,CLR,,0.00,0.0,WeatherDisplay:10.37,2013-09-20 00:50:00,
2013-09-20 01:55:00,47.4,46.3,29.84,WNW,282,2.0,8.0,96,0.00,CLR,,0.00,0.0,WeatherDisplay:10.37,2013-09-20 00:55:00,
2013-09-20 02:00:00,47.3,46.2,29.84,West,278,1.0,10.0,96,0.00,CLR,,0.00,0.0,WeatherDisplay:10.37,2013-09-20 01:00:00,
2013-09-20 02:05:00,47.2,46.1,29.84,WNW,282,3.0,6.0,96,0.00,CLR,,0.00,0.0,WeatherDisplay:10.37,2013-09-20 01:05:00,
2013-09-20 02:10:00,47.1,46.0,29.84,WNW,284,2.0,10.0,96,0.00,CLR,,0.00,0.0,WeatherDisplay:10.37,2013-09-20 01:10:00,
2013-09-20 02:15:00,47.0,45.9,29.84,West,274,2.0,9.0,96,0.00,CLR,,0.00,0.0,WeatherDisplay:10.37,2013-09-20 01:15:00,
2013-09-20 02:25:00,46.8,45.7,29.85,WSW,252,2.0,8.0,96,0.00,CLR,,0.00,0.0,WeatherDisplay:10.37,2013-09-20 01:25:00,
2013-09-20 02:30:00,46.7,45.6,29.85,WSW,246,3.0,6.0,96,0.00,CLR,,0.00,0.0,WeatherDisplay:10.37,2013-09-20 01:30:00,
2013-09-20 02:35:00,46.5,45.4,29.85,West,266,0.0,4.0,96,0.00,CLR,,0.00,0.0,WeatherDisplay:10.37,2013-09-20 01:35:00,
2013-09-20 02:40:00,46.3,44.9,29.85,WNW,285,1.0,5.0,95,0.00,CLR,,0.00,0.0,WeatherDisplay:10.37,2013-09-20 01:40:00,
2013-09-20 02:45:00,46.1,44.7,29.85,WNW,289,1.0,4.0,95,0.00,CLR,,0.00,0.0,WeatherDisplay:10.37,2013-09-20 01:45:00,
2013-09-20 02:50:00,45.9,44.5,29.85,WNW,287,1.0,7.0,95,0.00,CLR,,0.00,0.0,WeatherDisplay:10.37,2013-09-20 01:50:00,
2013-09-20 02:55:00,45.6,44.3,29.85,NW,320,1.0,3.0,95,0.00,CLR,,0.00,0.0,WeatherDisplay:10.37,2013-09-20 01:55:00,
2013-09-20 03:00:00,45.4,44.1,29.86,NNE,18,0.0,1.0,95,0.00,CLR,,0.00,0.0,WeatherDisplay:10.37,2013-09-20 02:00:00,
2013-09-20 03:05:00,45.1,43.7,29.86,North,359,0.0,2.0,95,0.00,CLR,,0.00,0.0,WeatherDisplay:10.37,2013-09-20 02:05:00,
2013-09-20 03:10:00,44.7,43.4,29.86,North,5,0.0,2.0,95,0.00,CLR,,0.00,0.0,WeatherDisplay:10.37,2013-09-20 02:10:00,
2013-09-20 03:15:00,44.4,43.1,29.86,NW,317,0.0,3.0,95,0.00,CLR,,0.00,0.0,WeatherDisplay:10.37,2013-09-20 02:15:00,
2013-09-20 03:20:00,44.2,42.9,29.86,NW,311,0.0,5.0,95,0.00,CLR,,0.00,0.0,WeatherDisplay:10.37,2013-09-20 02:20:00,
2013-09-20 03:30:00,43.8,42.5,29.87,NW,312,0.0,2.0,95,0.00,CLR,,0.00,0.0,WeatherDisplay:10.37,2013-09-20 02:30:00,
2013-09-20 03:35:00,43.7,42.4,29.87,NW,312,1.0,3.0,95,0.00,CLR,,0.00,0.0,WeatherDisplay:10.37,2013-09-20 02:35:00,
2013-09-20 03:40:00,43.8,42.7,29.87,NW,312,1.0,4.0,96,0.00,CLR,,0.00,0.0,WeatherDisplay:10.37,2013-09-20 02:40:00,
2013-09-20 03:45:00,43.8,42.7,29.87,NW,312,1.0,4.0,96,0.00,CLR,,0.00,0.0,WeatherDisplay:10.37,2013-09-20 02:45:00,
2013-09-20 03:50:00,43.8,42.7,29.87,NW,312,1.0,4.0,96,0.00,CLR,,0.00,0.0,WeatherDisplay:10.37,2013-09-20 02:50:00,
2013-09-20 03:55:00,43.7,42.7,29.88,NW,312,0.0,2.0,96,0.00,CLR,,0.00,0.0,WeatherDisplay:10.37,2013-09-20 02:55:00,
2013-09-20 04:00:00,43.6,42.5,29.88,NW,312,0.0,1.0,96,0.00,CLR,,0.00,0.0,WeatherDisplay:10.37,2013-09-20 03:00:00,
2013-09-20 04:05:00,43.4,42.1,29.88,NW,312,0.0,1.0,95,0.00,CLR,,0.00,0.0,WeatherDisplay:10.37,2013-09-20 03:05:00,
2013-09-20 04:10:00,43.3,42.2,29.88,NW,312,0.0,1.0,96,0.00,CLR,,0.00,0.0,WeatherDisplay:10.37,2013-09-20 03:10:00,
2013-09-20 04:15:00,43.0,41.6,29.88,NW,312,0.0,0.0,95,0.00,CLR,,0.00,0.0,WeatherDisplay:10.37,2013-09-20 03:15:00,
2013-09-20 04:20:00,42.7,41.3,29.88,NW,312,0.0,0.0,95,0.00,CLR,,0.00,0.0,WeatherDisplay:10.37,2013-09-20 03:20:00,
2013-09-20 04:25:00,42.3,41.0,29.88,NW,312,0.0,1.0,95,0.00,CLR,,0.00,0.0,WeatherDisplay:10.37,2013-09-20 03:25:00,
2013-09-20 04:30:00,42.0,40.7,29.88,NW,312,0.0,1.0,95,0.00,CLR,,0.00,0.0,WeatherDisplay:10.37,2013-09-20 03:30:00,
2013-09-20 04:35:00,41.8,40.5,29.89,NW,312,0.0,1.0,95,0.00,CLR,,0.00,0.0,WeatherDisplay:10.37,2013-09-20 03:35:00,
2013-09-20 04:40:00,41.7,40.4,29.88,NW,312,0.0,2.0,95,0.00,CLR,,0.00,0.0,WeatherDisplay:10.37,2013-09-20 03:40:00,
2013-09-20 04:45:00,41.7,40.6,29.88,NW,312,0.0,2.0,96,0.01,RA,,0.01,0.0,WeatherDisplay:10.37,2013-09-20 03:45:00,
2013-09-20 04:55:00,41.8,40.7,29.89,WSW,252,0.0,2.0,96,0.00,RA,,0.01,0.0,WeatherDisplay:10.37,2013-09-20 03:55:00,
2013-09-20 05:00:00,41.9,40.8,29.89,WSW,248,0.0,1.0,96,0.00,,,0.01,0.0,WeatherDisplay:10.37,2013-09-20 04:00:00,
2013-09-20 05:05:00,42.1,41.3,29.89,WSW,248,0.0,0.0,97,0.00,CLR,,0.01,0.0,WeatherDisplay:10.37,2013-09-20 04:05:00,
2013-09-20 05:10:00,42.3,41.5,29.89,WSW,248,0.0,0.0,97,0.00,,,0.01,0.0,WeatherDisplay:10.37,2013-09-20 04:10:00,
2013-09-20 05:15:00,42.7,41.9,29.89,WSW,248,0.0,3.0,97,0.00,,,0.01,0.0,WeatherDisplay:10.37,2013-09-20 04:15:00,
2013-09-20 05:20:00,43.1,42.3,29.89,WSW,248,0.0,1.0,97,0.00,CLR,,0.01,0.0,WeatherDisplay:10.37,2013-09-20 04:20:00,
2013-09-20 05:25:00,43.3,42.8,29.89,WSW,248,0.0,2.0,98,0.00,CLR,,0.01,0.0,WeatherDisplay:10.37,2013-09-20 04:25:00,
2013-09-20 05:30:00,43.5,42.7,29.90,WSW,248,1.0,3.0,97,0.00,CLR,,0.01,0.0,WeatherDisplay:10.37,2013-09-20 04:30:00,
2013-09-20 05:35:00,43.6,42.8,29.90,WSW,248,0.0,2.0,97,0.00,CLR,,0.01,0.0,WeatherDisplay:10.37,2013-09-20 04:35:00,
2013-09-20 05:40:00,43.6,42.8,29.90,WSW,248,1.0,2.0,97,0.00,CLR,,0.01,0.0,WeatherDisplay:10.37,2013-09-20 04:40:00,
2013-09-20 05:45:00,43.5,42.7,29.90,South,174,1.0,3.0,97,0.00,CLR,,0.01,0.0,WeatherDisplay:10.37,2013-09-20 04:45:00,
2013-09-20 05:50:00,43.4,42.6,29.90,SE,140,0.0,2.0,97,0.00,,,0.01,0.0,WeatherDisplay:10.37,2013-09-20 04:50:00,
2013-09-20 06:00:00,43.3,42.2,29.90,SSE,165,0.0,1.0,96,0.00,CLR,,0.01,0.0,WeatherDisplay:10.37,2013-09-20 05:00:00,
2013-09-20 06:05:00,43.2,42.1,29.90,SSE,167,1.0,4.0,96,0.00,CLR,,0.01,0.0,WeatherDisplay:10.37,2013-09-20 05:05:00,
2013-09-20 06:10:00,43.0,41.9,29.90,SSE,168,1.0,3.0,96,0.00,CLR,,0.01,0.0,WeatherDisplay:10.37,2013-09-20 05:10:00,
2013-09-20 06:15:00,43.0,42.2,29.91,South,171,0.0,4.0,97,0.00,,,0.01,0.0,WeatherDisplay:10.37,2013-09-20 05:15:00,
2013-09-20 06:20:00,43.1,42.3,29.91,SSE,150,1.0,3.0,97,0.00,,,0.01,0.0,WeatherDisplay:10.37,2013-09-20 05:20:00,
2013-09-20 06:25:00,43.2,42.4,29.91,ESE,115,2.0,3.0,97,0.00,,,0.01,0.0,WeatherDisplay:10.37,2013-09-20 05:25:00,
2013-09-20 06:30:00,43.5,42.7,29.91,SE,127,1.0,4.0,97,0.00,,,0.01,0.0,WeatherDisplay:10.37,2013-09-20 05:30:00,
2013-09-20 06:35:00,43.8,43.0,29.91,SSE,153,1.0,4.0,97,0.00,,,0.01,0.0,WeatherDisplay:10.37,2013-09-20 05:35:00,
2013-09-20 06:40:00,44.1,43.6,29.91,SSE,155,0.0,2.0,98,0.00,,,0.01,0.0,WeatherDisplay:10.37,2013-09-20 05:40:00,
2013-09-20 06:45:00,44.4,43.9,29.91,South,169,0.0,1.0,98,0.00,,,0.01,0.0,WeatherDisplay:10.37,2013-09-20 05:45:00,
2013-09-20 06:50:00,44.8,44.3,29.91,South,173,0.0,2.0,98,0.00,,,0.01,0.0,WeatherDisplay:10.37,2013-09-20 05:50:00,
2013-09-20 06:55:00,44.9,44.4,29.92,South,173,0.0,2.0,98,0.00,,,0.01,0.0,WeatherDisplay:10.37,2013-09-20 05:55:00,
2013-09-20 07:00:00,45.0,44.5,29.92,South,186,1.0,4.0,98,0.00,SCT,,0.01,5.0,WeatherDisplay:10.37,2013-09-20 06:00:00,
2013-09-20 07:05:00,45.4,44.8,29.92,SSW,206,1.0,4.0,98,0.00,,,0.01,0.0,WeatherDisplay:10.37,2013-09-20 06:05:00,
2013-09-20 07:10:00,45.7,45.2,29.93,SW,225,1.0,4.0,98,0.00,,,0.01,0.0,WeatherDisplay:10.37,2013-09-20 06:10:00,
2013-09-20 07:15:00,45.9,45.4,29.93,SW,233,0.0,2.0,98,0.00,BKN,,0.01,9.0,WeatherDisplay:10.37,2013-09-20 06:15:00,
2013-09-20 07:20:00,46.1,45.5,29.93,WSW,237,1.0,2.0,98,0.00,BKN,,0.01,11.0,WeatherDisplay:10.37,2013-09-20 06:20:00,
2013-09-20 07:25:00,46.2,45.7,29.93,SW,228,1.0,4.0,98,0.00,BKN,,0.01,11.0,WeatherDisplay:10.37,2013-09-20 06:25:00,
2013-09-20 07:30:00,46.5,45.9,29.93,SW,216,2.0,5.0,98,0.00,BKN,,0.01,11.0,WeatherDisplay:10.37,2013-09-20 06:30:00,
2013-09-20 07:35:00,46.8,46.3,29.93,SSW,212,2.0,4.0,98,0.00,BKN,,0.01,12.0,WeatherDisplay:10.37,2013-09-20 06:35:00,
2013-09-20 07:40:00,47.0,46.5,29.93,SW,215,5.0,6.0,98,0.00,BKN,,0.01,16.0,WeatherDisplay:10.37,2013-09-20 06:40:00,
2013-09-20 07:45:00,47.2,46.7,29.93,SW,227,2.0,5.0,98,0.00,BKN,,0.01,18.0,WeatherDisplay:10.37,2013-09-20 06:45:00,
2013-09-20 07:50:00,47.4,46.9,29.94,SW,225,3.0,6.0,98,0.00,BKN,,0.01,19.0,WeatherDisplay:10.37,2013-09-20 06:50:00,
2013-09-20 07:55:00,47.6,47.1,29.94,SW,230,5.0,6.0,98,0.00,BKN,,0.01,28.0,WeatherDisplay:10.37,2013-09-20 06:55:00,
2013-09-20 08:00:00,47.7,47.2,29.93,SW,232,3.0,7.0,98,0.00,BKN,,0.01,32.0,WeatherDisplay:10.37,2013-09-20 07:00:00,
2013-09-20 08:05:00,47.9,47.4,29.94,SW,227,5.0,7.0,98,0.00,BKN,,0.01,39.0,WeatherDisplay:10.37,2013-09-20 07:05:00,
2013-09-20 08:10:00,48.0,47.5,29.93,SW,226,3.0,7.0,98,0.00,BKN,,0.01,35.0,WeatherDisplay:10.37,2013-09-20 07:10:00,
2013-09-20 08:15:00,48.1,47.6,29.94,SW,224,3.0,6.0,98,0.00,BKN,,0.01,37.0,WeatherDisplay:10.37,2013-09-20 07:15:00,
2013-09-20 08:20:00,48.2,47.7,29.94,SW,224,2.0,6.0,98,0.00,BKN,,0.01,44.0,WeatherDisplay:10.37,2013-09-20 07:20:00,
2013-09-20 08:25:00,48.3,47.8,29.94,SW,222,3.0,7.0,98,0.00,BKN,,0.01,62.0,WeatherDisplay:10.37,2013-09-20 07:25:00,
2013-09-20 08:30:00,48.4,47.6,29.94,SW,227,3.0,8.0,97,0.00,BKN,,0.01,69.0,WeatherDisplay:10.37,2013-09-20 07:30:00,
2013-09-20 08:35:00,48.5,47.7,29.94,SW,234,3.0,6.0,97,0.00,BKN,,0.01,90.0,WeatherDisplay:10.37,2013-09-20 07:35:00,
2013-09-20 08:40:00,48.6,48.1,29.94,SW,233,3.0,6.0,98,0.00,BKN,,0.01,81.0,WeatherDisplay:10.37,2013-09-20 07:40:00,
2013-09-20 08:50:00,48.9,48.1,29.94,SW,220,5.0,7.0,97,0.00,BKN,,0.01,84.0,WeatherDisplay:10.37,2013-09-20 07:50:00,
2013-09-20 08:55:00,49.0,48.2,29.94,SW,216,5.0,8.0,97,0.00,BKN,,0.01,84.0,WeatherDisplay:10.37,2013-09-20 07:55:00,
2013-09-20 09:00:00,49.1,48.3,29.94,SW,220,7.0,12.0,97,0.00,BKN,,0.01,91.0,WeatherDisplay:10.37,2013-09-20 08:00:00,
2013-09-20 09:05:00,49.2,48.4,29.94,SW,221,7.0,12.0,97,0.00,BKN,,0.01,26.0,WeatherDisplay:10.37,2013-09-20 08:05:00,
2013-09-20 09:10:00,49.2,48.4,29.94,SW,221,3.0,10.0,97,0.00,BKN,,0.01,32.0,WeatherDisplay:10.37,2013-09-20 08:10:00,
2013-09-20 09:15:00,49.2,48.4,29.95,SW,226,5.0,8.0,97,0.00,BKN,,0.01,33.0,WeatherDisplay:10.37,2013-09-20 08:15:00,
2013-09-20 09:20:00,49.4,48.5,29.95,WSW,249,3.0,9.0,97,0.00,BKN,,0.01,33.0,WeatherDisplay:10.37,2013-09-20 08:20:00,
2013-09-20 09:25:00,49.5,48.7,29.94,West,259,5.0,8.0,97,0.00,BKN,,0.01,39.0,WeatherDisplay:10.37,2013-09-20 08:25:00,
2013-09-20 09:30:00,49.7,48.9,29.95,WSW,237,5.0,10.0,97,0.00,BKN,,0.01,83.0,WeatherDisplay:10.37,2013-09-20 08:30:00,
2013-09-20 09:35:00,50.0,48.9,29.94,SW,230,6.0,13.0,96,0.00,BKN,,0.01,246.0,WeatherDisplay:10.37,2013-09-20 08:35:00,
2013-09-20 09:40:00,50.4,49.3,29.95,WSW,256,3.0,10.0,96,0.00,SCT,,0.01,174.0,WeatherDisplay:10.37,2013-09-20 08:40:00,
2013-09-20 09:45:00,50.8,49.7,29.95,West,266,7.0,12.0,96,0.00,FEW,,0.01,294.0,WeatherDisplay:10.37,2013-09-20 08:45:00,
2013-09-20 09:50:00,51.2,49.8,29.95,WSW,258,6.0,12.0,95,0.00,FEW,,0.01,221.0,WeatherDisplay:10.37,2013-09-20 08:50:00,
2013-09-20 10:00:00,51.7,49.7,29.96,West,267,6.0,12.0,93,0.00,SCT,,0.01,169.0,WeatherDisplay:10.37,2013-09-20 09:00:00,
2013-09-20 10:05:00,51.8,49.5,29.96,WSW,240,7.0,12.0,92,0.00,BKN,,0.01,174.0,WeatherDisplay:10.37,2013-09-20 09:05:00,
2013-09-20 10:10:00,51.8,49.5,29.96,West,263,5.0,9.0,92,0.00,BKN,,0.01,158.0,WeatherDisplay:10.37,2013-09-20 09:10:00,
2013-09-20 10:15:00,51.9,49.6,29.96,West,271,3.0,9.0,92,0.00,BKN,,0.01,148.0,WeatherDisplay:10.37,2013-09-20 09:15:00,
2013-09-20 10:20:00,52.0,49.5,29.97,WSW,243,5.0,9.0,91,0.00,BKN,,0.01,165.0,WeatherDisplay:10.37,2013-09-20 09:20:00,
2013-09-20 10:25:00,52.1,49.6,29.97,SW,223,7.0,13.0,91,0.00,BKN,,0.01,192.0,WeatherDisplay:10.37,2013-09-20 09:25:00,
2013-09-20 10:30:00,52.3,49.7,29.97,SW,227,7.0,12.0,91,0.00,BKN,,0.01,206.0,WeatherDisplay:10.37,2013-09-20 09:30:00,
2013-09-20 10:35:00,52.4,49.6,29.97,SW,233,5.0,10.0,90,0.00,BKN,,0.01,223.0,WeatherDisplay:10.37,2013-09-20 09:35:00,
2013-09-20 10:40:00,52.6,49.8,29.97,WSW,245,7.0,10.0,90,0.00,SCT,,0.01,230.0,WeatherDisplay:10.37,2013-09-20 09:40:00,
2013-09-20 10:45:00,52.8,49.9,29.97,SW,236,3.0,10.0,90,0.00,SCT,,0.01,225.0,WeatherDisplay:10.37,2013-09-20 09:45:00,
2013-09-20 10:55:00,53.1,49.7,29.97,SW,227,5.0,13.0,88,0.00,SCT,,0.01,227.0,WeatherDisplay:10.37,2013-09-20 09:55:00,
2013-09-20 11:00:00,53.3,49.5,29.97,SW,234,7.0,13.0,87,0.01,RA,,0.02,211.0,WeatherDisplay:10.37,2013-09-20 10:00:00,
2013-09-20 11:05:00,53.4,49.6,29.97,WSW,246,3.0,9.0,87,0.00,RA,,0.02,225.0,WeatherDisplay:10.37,2013-09-20 10:05:00,
2013-09-20 11:10:00,53.6,49.8,29.97,SW,227,5.0,12.0,87,0.00,RA,,0.02,209.0,WeatherDisplay:10.37,2013-09-20 10:10:00,
2013-09-20 11:15:00,53.7,49.9,29.97,SW,222,5.0,12.0,87,0.00,BKN,,0.02,179.0,WeatherDisplay:10.37,2013-09-20 10:15:00,
2013-09-20 11:20:00,54.0,50.2,29.97,SW,221,6.0,9.0,87,0.00,SCT,,0.02,520.0,WeatherDisplay:10.37,2013-09-20 10:20:00,
2013-09-20 11:25:00,54.3,50.5,29.97,SW,226,6.0,13.0,87,0.00,SCT,,0.02,251.0,WeatherDisplay:10.37,2013-09-20 10:25:00,
2013-09-20 11:30:00,54.5,50.4,29.97,WSW,240,5.0,12.0,86,0.00,SCT,,0.02,236.0,WeatherDisplay:10.37,2013-09-20 10:30:00,
2013-09-20 11:35:00,54.7,50.6,29.97,West,270,6.0,12.0,86,0.00,SCT,,0.02,283.0,WeatherDisplay:10.37,2013-09-20 10:35:00,
2013-09-20 11:40:00,54.9,50.5,29.97,WNW,285,6.0,13.0,85,0.00,SCT,,0.02,237.0,WeatherDisplay:10.37,2013-09-20 10:40:00,
2013-09-20 11:50:00,55.2,50.1,29.97,SW,231,10.0,17.0,83,0.00,SCT,,0.02,332.0,WeatherDisplay:10.37,2013-09-20 10:50:00,
2013-09-20 11:55:00,55.3,49.9,29.98,SW,219,8.0,16.0,82,0.00,SCT,,0.02,359.0,WeatherDisplay:10.37,2013-09-20 10:55:00,
2013-09-20 12:00:00,55.5,50.4,29.98,SW,225,9.0,14.0,83,0.00,SCT,,0.02,367.0,WeatherDisplay:10.37,2013-09-20 11:00:00,
2013-09-20 12:10:00,56.2,51.1,29.97,SW,222,9.0,14.0,83,0.00,CLR,,0.02,640.0,WeatherDisplay:10.37,2013-09-20 11:10:00,
2013-09-20 12:20:00,56.5,50.7,29.98,SW,224,10.0,15.0,81,0.00,SCT,,0.02,410.0,WeatherDisplay:10.37,2013-09-20 11:20:00,
2013-09-20 12:25:00,56.3,49.9,29.98,SW,236,9.0,16.0,79,0.00,SCT,,0.02,237.0,WeatherDisplay:10.37,2013-09-20 11:25:00,
2013-09-20 12:30:00,56.2,50.4,29.98,WSW,240,6.0,10.0,81,0.00,BKN,,0.02,179.0,WeatherDisplay:10.37,2013-09-20 11:30:00,
2013-09-20 12:35:00,56.3,50.2,29.98,WSW,239,12.0,16.0,80,0.00,BKN,,0.02,278.0,WeatherDisplay:10.37,2013-09-20 11:35:00,
2013-09-20 12:40:00,56.3,50.2,29.99,SW,229,7.0,15.0,80,0.00,BKN,,0.02,160.0,WeatherDisplay:10.37,2013-09-20 11:40:00,
2013-09-20 12:45:00,56.2,49.8,29.99,WSW,238,9.0,17.0,79,0.00,BKN,,0.02,218.0,WeatherDisplay:10.37,2013-09-20 11:45:00,
2013-09-20 12:50:00,56.1,49.7,29.99,SW,235,9.0,16.0,79,0.00,BKN,,0.02,250.0,WeatherDisplay:10.37,2013-09-20 11:50:00,
2013-09-20 12:55:00,56.2,49.8,29.98,SW,231,9.0,16.0,79,0.00,BKN,,0.02,322.0,WeatherDisplay:10.37,2013-09-20 11:55:00,
2013-09-20 13:00:00,56.4,49.6,29.98,WSW,242,8.0,16.0,78,0.00,SCT,,0.02,294.0,WeatherDisplay:10.37,2013-09-20 12:00:00,
2013-09-20 13:05:00,56.6,49.4,29.97,SW,233,8.0,16.0,77,0.00,SCT,,0.02,285.0,WeatherDisplay:10.37,2013-09-20 12:05:00,
2013-09-20 13:10:00,56.7,49.2,29.97,SW,229,9.0,13.0,76,0.00,SCT,,0.02,645.0,WeatherDisplay:10.37,2013-09-20 12:10:00,
2013-09-20 13:15:00,56.9,49.4,29.97,WSW,237,10.0,18.0,76,0.00,SCT,,0.02,174.0,WeatherDisplay:10.37,2013-09-20 12:15:00,
2013-09-20 13:20:00,56.8,49.0,29.98,SW,221,8.0,17.0,75,0.00,SCT,,0.02,320.0,WeatherDisplay:10.37,2013-09-20 12:20:00,
2013-09-20 13:25:00,56.8,49.0,29.98,SW,223,7.0,14.0,75,0.00,SCT,,0.02,388.0,WeatherDisplay:10.37,2013-09-20 12:25:00,
2013-09-20 13:30:00,56.9,49.4,29.99,SW,231,6.0,16.0,76,0.00,BKN,,0.02,200.0,WeatherDisplay:10.37,2013-09-20 12:30:00,
2013-09-20 13:35:00,56.9,48.7,29.99,SW,226,9.0,17.0,74,0.00,BKN,,0.02,213.0,WeatherDisplay:10.37,2013-09-20 12:35:00,
2013-09-20 13:40:00,56.8,47.9,29.99,SW,230,12.0,24.0,72,0.00,BKN,,0.02,195.0,WeatherDisplay:10.37,2013-09-20 12:40:00,
2013-09-20 13:45:00,56.9,47.9,29.99,SW,234,10.0,18.0,72,0.00,BKN,,0.02,183.0,WeatherDisplay:10.37,2013-09-20 12:45:00,
2013-09-20 13:50:00,56.9,48.0,29.99,SW,228,9.0,16.0,72,0.00,BKN,,0.02,239.0,WeatherDisplay:10.37,2013-09-20 12:50:00,
2013-09-20 13:55:00,57.1,48.5,29.99,SW,235,8.0,16.0,73,0.00,BKN,,0.02,438.0,WeatherDisplay:10.37,2013-09-20 12:55:00,
2013-09-20 14:05:00,57.8,48.8,29.99,WSW,245,8.0,13.0,72,0.00,SCT,,0.02,230.0,WeatherDisplay:10.37,2013-09-20 13:05:00,
2013-09-20 14:10:00,57.8,48.1,29.99,SW,233,12.0,20.0,70,0.00,BKN,,0.02,237.0,WeatherDisplay:10.37,2013-09-20 13:10:00,
2013-09-20 14:15:00,57.6,47.9,29.99,SW,234,12.0,20.0,70,0.00,BKN,,0.02,281.0,WeatherDisplay:10.37,2013-09-20 13:15:00,
2013-09-20 14:20:00,57.5,47.8,29.99,SW,229,6.0,17.0,70,0.00,BKN,,0.02,174.0,WeatherDisplay:10.37,2013-09-20 13:20:00,
2013-09-20 14:25:00,57.4,48.1,29.99,WSW,237,7.0,12.0,71,0.00,BKN,,0.02,185.0,WeatherDisplay:10.37,2013-09-20 13:25:00,
2013-09-20 14:35:00,57.3,48.3,30.00,WSW,244,7.0,15.0,72,0.00,BKN,,0.02,130.0,WeatherDisplay:10.37,2013-09-20 13:35:00,
2013-09-20 14:40:00,57.4,48.8,30.00,West,262,6.0,12.0,73,0.00,BKN,,0.02,169.0,WeatherDisplay:10.37,2013-09-20 13:40:00,
2013-09-20 14:45:00,57.3,48.3,30.00,West,264,5.0,12.0,72,0.00,BKN,,0.02,169.0,WeatherDisplay:10.37,2013-09-20 13:45:00,
2013-09-20 14:50:00,57.2,47.5,30.00,WSW,239,9.0,15.0,70,0.00,BKN,,0.02,237.0,WeatherDisplay:10.37,2013-09-20 13:50:00,
2013-09-20 14:55:00,57.5,48.5,30.00,SW,221,8.0,15.0,72,0.00,SCT,,0.02,478.0,WeatherDisplay:10.37,2013-09-20 13:55:00,
2013-09-20 15:00:00,58.0,48.3,30.00,SW,228,10.0,16.0,70,0.00,FEW,,0.02,216.0,WeatherDisplay:10.37,2013-09-20 14:00:00,
2013-09-20 15:05:00,58.1,48.4,29.99,SW,232,8.0,15.0,70,0.00,FEW,,0.02,422.0,WeatherDisplay:10.37,2013-09-20 14:05:00,
2013-09-20 15:10:00,58.3,48.1,30.00,SW,224,7.0,15.0,69,0.00,FEW,,0.02,364.0,WeatherDisplay:10.37,2013-09-20 14:10:00,
2013-09-20 15:15:00,58.5,48.3,30.00,SW,222,8.0,15.0,69,0.00,CLR,,0.02,424.0,WeatherDisplay:10.37,2013-09-20 14:15:00,
2013-09-20 15:20:00,58.7,48.2,30.00,SW,225,8.0,15.0,68,0.00,FEW,,0.02,308.0,WeatherDisplay:10.37,2013-09-20 14:20:00,
2013-09-20 15:25:00,58.7,48.2,30.00,SW,233,13.0,18.0,68,0.00,FEW,,0.02,482.0,WeatherDisplay:10.37,2013-09-20 14:25:00,
2013-09-20 15:30:00,58.9,48.4,30.00,SW,220,12.0,20.0,68,0.00,CLR,,0.02,415.0,WeatherDisplay:10.37,2013-09-20 14:30:00,
2013-09-20 15:35:00,58.9,48.0,30.00,SW,230,13.0,21.0,67,0.00,CLR,,0.02,355.0,WeatherDisplay:10.37,2013-09-20 14:35:00,
2013-09-20 15:40:00,59.0,48.1,30.00,SW,227,10.0,18.0,67,0.00,CLR,,0.02,401.0,WeatherDisplay:10.37,2013-09-20 14:40:00,
2013-09-20 15:50:00,59.0,47.2,30.00,SW,232,8.0,16.0,65,0.00,CLR,,0.02,345.0,WeatherDisplay:10.37,2013-09-20 14:50:00,
2013-09-20 15:55:00,59.1,47.7,30.00,SW,227,13.0,17.0,66,0.00,CLR,,0.02,383.0,WeatherDisplay:10.37,2013-09-20 14:55:00,
2013-09-20 16:00:00,59.1,47.3,30.00,SW,220,8.0,16.0,65,0.00,CLR,,0.02,345.0,WeatherDisplay:10.37,2013-09-20 15:00:00,
2013-09-20 16:05:00,59.2,47.4,30.00,WSW,238,8.0,14.0,65,0.00,CLR,,0.02,272.0,WeatherDisplay:10.37,2013-09-20 15:05:00,
2013-09-20 16:10:00,59.2,47.4,30.00,WSW,239,10.0,20.0,65,0.00,FEW,,0.02,359.0,WeatherDisplay:10.37,2013-09-20 15:10:00,
2013-09-20 16:15:00,59.3,47.1,30.00,SW,229,9.0,19.0,64,0.00,FEW,,0.02,258.0,WeatherDisplay:10.37,2013-09-20 15:15:00,
2013-09-20 16:20:00,59.0,47.3,30.00,SW,221,12.0,18.0,65,0.00,FEW,,0.02,248.0,WeatherDisplay:10.37,2013-09-20 15:20:00,
2013-09-20 16:25:00,58.9,47.2,30.00,SW,220,8.0,17.0,65,0.00,FEW,,0.02,255.0,WeatherDisplay:10.37,2013-09-20 15:25:00,
2013-09-20 16:30:00,58.7,47.0,30.00,SW,232,7.0,14.0,65,0.00,FEW,,0.02,251.0,WeatherDisplay:10.37,2013-09-20 15:30:00,
2013-09-20 16:35:00,58.8,47.9,29.99,SW,221,9.0,15.0,67,0.00,FEW,,0.02,269.0,WeatherDisplay:10.37,2013-09-20 15:35:00,
2013-09-20 16:40:00,58.8,47.5,29.99,SW,214,8.0,16.0,66,0.00,FEW,,0.02,251.0,WeatherDisplay:10.37,2013-09-20 15:40:00,
2013-09-20 16:45:00,58.6,47.3,29.99,SW,217,9.0,15.0,66,0.00,FEW,,0.02,169.0,WeatherDisplay:10.37,2013-09-20 15:45:00,
2013-09-20 16:50:00,58.6,47.7,29.99,SW,219,9.0,12.0,67,0.00,SCT,,0.02,156.0,WeatherDisplay:10.37,2013-09-20 15:50:00,
2013-09-20 16:55:00,58.5,47.6,29.98,SW,221,7.0,20.0,67,0.00,SCT,,0.02,155.0,WeatherDisplay:10.37,2013-09-20 15:55:00,
2013-09-20 17:00:00,58.5,47.6,29.98,SW,217,12.0,17.0,67,0.00,SCT,,0.02,139.0,WeatherDisplay:10.37,2013-09-20 16:00:00,
2013-09-20 17:05:00,58.3,47.0,29.98,SW,219,10.0,15.0,66,0.00,SCT,,0.02,120.0,WeatherDisplay:10.37,2013-09-20 16:05:00,
2013-09-20 17:10:00,58.2,47.3,29.98,SW,223,9.0,14.0,67,0.00,BKN,,0.02,107.0,WeatherDisplay:10.37,2013-09-20 16:10:00,
2013-09-20 17:15:00,58.1,47.6,29.99,SW,221,8.0,13.0,68,0.00,BKN,,0.02,109.0,WeatherDisplay:10.37,2013-09-20 16:15:00,
2013-09-20 17:20:00,57.9,47.4,29.99,SW,224,9.0,15.0,68,0.00,BKN,,0.02,107.0,WeatherDisplay:10.37,2013-09-20 16:20:00,
2013-09-20 17:25:00,57.8,47.3,29.99,SW,220,8.0,16.0,68,0.00,BKN,,0.02,105.0,WeatherDisplay:10.37,2013-09-20 16:25:00,
2013-09-20 17:30:00,57.7,47.6,29.99,SW,221,8.0,16.0,69,0.00,BKN,,0.02,109.0,WeatherDisplay:10.37,2013-09-20 16:30:00,
2013-09-20 17:35:00,57.5,47.4,29.99,SW,222,9.0,16.0,69,0.00,SCT,,0.02,102.0,WeatherDisplay:10.37,2013-09-20 16:35:00,
2013-09-20 17:40:00,57.4,47.7,29.99,SW,229,9.0,14.0,70,0.00,SCT,,0.02,90.0,WeatherDisplay:10.37,2013-09-20 16:40:00,
2013-09-20 17:50:00,57.3,48.0,30.00,SW,231,8.0,12.0,71,0.00,BKN,,0.02,84.0,WeatherDisplay:10.37,2013-09-20 16:50:00,
2013-09-20 17:55:00,57.2,47.9,30.00,SW,229,7.0,13.0,71,0.00,SCT,,0.02,86.0,WeatherDisplay:10.37,2013-09-20 16:55:00,
2013-09-20 18:00:00,57.1,47.8,30.00,SW,222,7.0,12.0,71,0.00,SCT,,0.02,88.0,WeatherDisplay:10.37,2013-09-20 17:00:00,
2013-09-20 18:10:00,57.0,48.1,30.00,SW,226,7.0,11.0,72,0.00,SCT,,0.02,67.0,WeatherDisplay:10.37,2013-09-20 17:10:00,
2013-09-20 18:15:00,56.8,47.9,30.00,SW,224,5.0,12.0,72,0.00,SCT,,0.02,56.0,WeatherDisplay:10.37,2013-09-20 17:15:00,
2013-09-20 18:20:00,56.7,48.2,30.00,SW,222,8.0,12.0,73,0.00,BKN,,0.02,49.0,WeatherDisplay:10.37,2013-09-20 17:20:00,
2013-09-20 18:25:00,56.6,48.4,30.01,SW,216,6.0,12.0,74,0.00,BKN,,0.02,37.0,WeatherDisplay:10.37,2013-09-20 17:25:00,
2013-09-20 18:30:00,56.4,48.2,30.01,SW,231,6.0,9.0,74,0.00,BKN,,0.02,28.0,WeatherDisplay:10.37,2013-09-20 17:30:00,
2013-09-20 18:40:00,56.1,48.3,30.00,SW,225,6.0,9.0,75,0.00,BKN,,0.02,16.0,WeatherDisplay:10.37,2013-09-20 17:40:00,
2013-09-20 18:50:00,55.8,48.3,30.00,SW,228,7.0,12.0,76,0.00,BKN,,0.02,9.0,WeatherDisplay:10.37,2013-09-20 17:50:00,
2013-09-20 18:55:00,55.6,48.5,30.00,SW,230,7.0,12.0,77,0.00,BKN,,0.02,5.0,WeatherDisplay:10.37,2013-09-20 17:55:00,
2013-09-20 19:00:00,55.5,48.4,30.01,SW,227,5.0,10.0,77,0.00,OVC,,0.02,0.0,WeatherDisplay:10.37,2013-09-20 18:00:00,
2013-09-20 19:05:00,55.4,48.7,30.00,SW,216,6.0,10.0,78,0.00,OVC,,0.02,0.0,WeatherDisplay:10.37,2013-09-20 18:05:00,
2013-09-20 19:10:00,55.3,48.9,30.01,SW,217,8.0,12.0,79,0.00,OVC,,0.02,0.0,WeatherDisplay:10.37,2013-09-20 18:10:00,
2013-09-20 19:15:00,55.2,48.8,30.01,SW,214,7.0,13.0,79,0.00,OVC,,0.02,0.0,WeatherDisplay:10.37,2013-09-20 18:15:00,
2013-09-20 19:20:00,55.2,48.8,30.01,SW,217,8.0,14.0,79,0.00,OVC,,0.02,0.0,WeatherDisplay:10.37,2013-09-20 18:20:00,
2013-09-20 19:25:00,55.1,48.7,30.01,SW,219,7.0,13.0,79,0.00,OVC,,0.02,0.0,WeatherDisplay:10.37,2013-09-20 18:25:00,
2013-09-20 19:30:00,55.1,48.7,30.02,SSW,212,7.0,13.0,79,0.00,OVC,,0.02,0.0,WeatherDisplay:10.37,2013-09-20 18:30:00,
2013-09-20 19:35:00,55.1,48.7,30.02,SW,219,7.0,17.0,79,0.00,OVC,,0.02,0.0,WeatherDisplay:10.37,2013-09-20 18:35:00,
2013-09-20 19:40:00,55.1,48.7,30.02,SW,220,7.0,12.0,79,0.00,OVC,,0.02,0.0,WeatherDisplay:10.37,2013-09-20 18:40:00,
2013-09-20 19:45:00,55.0,48.6,30.02,SW,221,7.0,10.0,79,0.00,OVC,,0.02,0.0,WeatherDisplay:10.37,2013-09-20 18:45:00,
2013-09-20 19:55:00,54.9,48.8,30.02,SSW,213,5.0,12.0,80,0.00,CLR,,0.02,0.0,WeatherDisplay:10.37,2013-09-20 18:55:00,
2013-09-20 20:00:00,54.8,48.7,30.02,SSW,199,5.0,9.0,80,0.00,CLR,,0.02,0.0,WeatherDisplay:10.37,2013-09-20 19:00:00,
2013-09-20 20:05:00,54.6,48.9,30.02,SSW,194,5.0,13.0,81,0.00,CLR,,0.02,0.0,WeatherDisplay:10.37,2013-09-20 19:05:00,
2013-09-20 20:10:00,54.4,48.7,30.02,SSW,201,3.0,10.0,81,0.00,CLR,,0.02,0.0,WeatherDisplay:10.37,2013-09-20 19:10:00,
2013-09-20 20:15:00,54.2,48.5,30.03,SSW,205,5.0,9.0,81,0.00,CLR,,0.02,0.0,WeatherDisplay:10.37,2013-09-20 19:15:00,
2013-09-20 20:20:00,54.1,48.7,30.02,SSW,201,5.0,13.0,82,0.00,CLR,,0.02,0.0,WeatherDisplay:10.37,2013-09-20 19:20:00,
2013-09-20 20:25:00,53.9,48.5,30.02,SSW,212,6.0,12.0,82,0.00,CLR,,0.02,0.0,WeatherDisplay:10.37,2013-09-20 19:25:00,
2013-09-20 20:30:00,53.8,48.4,30.03,SSW,213,6.0,12.0,82,0.00,CLR,,0.02,0.0,WeatherDisplay:10.37,2013-09-20 19:30:00,
2013-09-20 20:35:00,53.7,48.3,30.03,SSW,208,5.0,12.0,82,0.00,CLR,,0.02,0.0,WeatherDisplay:10.37,2013-09-20 19:35:00,
2013-09-20 20:40:00,53.6,48.2,30.03,SSW,207,7.0,12.0,82,0.00,CLR,,0.02,0.0,WeatherDisplay:10.37,2013-09-20 19:40:00,
2013-09-20 20:45:00,53.5,48.5,30.02,SSW,201,5.0,10.0,83,0.00,CLR,,0.02,0.0,WeatherDisplay:10.37,2013-09-20 19:45:00,
2013-09-20 20:50:00,53.5,48.4,30.03,SSW,192,6.0,13.0,83,0.00,CLR,,0.02,0.0,WeatherDisplay:10.37,2013-09-20 19:50:00,
2013-09-20 20:55:00,53.4,48.4,30.03,SSW,199,7.0,13.0,83,0.00,CLR,,0.02,0.0,WeatherDisplay:10.37,2013-09-20 19:55:00,
2013-09-20 21:00:00,53.3,48.6,30.03,SSW,206,5.0,12.0,84,0.00,CLR,,0.02,0.0,WeatherDisplay:10.37,2013-09-20 20:00:00,
2013-09-20 21:05:00,53.2,48.8,30.03,SSW,205,5.0,13.0,85,0.00,CLR,,0.02,0.0,WeatherDisplay:10.37,2013-09-20 20:05:00,
2013-09-20 21:10:00,53.1,48.7,30.03,SSW,200,6.0,11.0,85,0.00,CLR,,0.02,0.0,WeatherDisplay:10.37,2013-09-20 20:10:00,
2013-09-20 21:15:00,53.0,48.6,30.02,SSW,198,6.0,12.0,85,0.00,CLR,,0.02,0.0,WeatherDisplay:10.37,2013-09-20 20:15:00,
2013-09-20 21:20:00,52.8,48.5,30.03,SSW,205,6.0,10.0,85,0.00,CLR,,0.02,0.0,WeatherDisplay:10.37,2013-09-20 20:20:00,
2013-09-20 21:25:00,52.8,48.4,30.03,SSW,208,6.0,9.0,85,0.00,CLR,,0.02,0.0,WeatherDisplay:10.37,2013-09-20 20:25:00,
2013-09-20 21:30:00,52.8,48.4,30.03,South,191,6.0,10.0,85,0.00,CLR,,0.02,0.0,WeatherDisplay:10.37,2013-09-20 20:30:00,
2013-09-20 21:35:00,52.9,48.8,30.03,SSW,196,5.0,12.0,86,0.00,CLR,,0.02,0.0,WeatherDisplay:10.37,2013-09-20 20:35:00,
2013-09-20 21:40:00,52.9,48.8,30.03,South,181,3.0,7.0,86,0.00,CLR,,0.02,0.0,WeatherDisplay:10.37,2013-09-20 20:40:00,
2013-09-20 21:45:00,52.9,48.8,30.03,South,183,7.0,12.0,86,0.00,CLR,,0.02,0.0,WeatherDisplay:10.37,2013-09-20 20:45:00,
2013-09-20 21:50:00,52.9,48.8,30.03,South,191,1.0,6.0,86,0.00,CLR,,0.02,0.0,WeatherDisplay:10.37,2013-09-20 20:50:00,
2013-09-20 22:00:00,52.9,48.8,30.03,SSW,195,3.0,13.0,86,0.00,CLR,,0.02,0.0,WeatherDisplay:10.37,2013-09-20 21:00:00,
2013-09-20 22:05:00,53.0,48.9,30.03,SSW,200,5.0,13.0,86,0.00,CLR,,0.02,0.0,WeatherDisplay:10.37,2013-09-20 21:05:00,
2013-09-20 22:10:00,53.1,49.0,30.02,SSW,202,6.0,15.0,86,0.00,CLR,,0.02,0.0,WeatherDisplay:10.37,2013-09-20 21:10:00,
2013-09-20 22:15:00,53.1,49.1,30.02,South,185,3.0,12.0,86,0.00,CLR,,0.02,0.0,WeatherDisplay:10.37,2013-09-20 21:15:00,
2013-09-20 22:20:00,53.2,49.1,30.03,South,181,3.0,9.0,86,0.00,CLR,,0.02,0.0,WeatherDisplay:10.37,2013-09-20 21:20:00,
2013-09-20 22:25:00,53.3,49.2,30.03,SSW,196,2.0,10.0,86,0.00,CLR,,0.02,0.0,WeatherDisplay:10.37,2013-09-20 21:25:00,
2013-09-20 22:30:00,53.3,49.2,30.03,SSW,204,5.0,10.0,86,0.00,CLR,,0.02,0.0,WeatherDisplay:10.37,2013-09-20 21:30:00,
2013-09-20 22:35:00,53.4,49.4,30.03,SSW,206,7.0,16.0,86,0.00,CLR,,0.02,0.0,WeatherDisplay:10.37,2013-09-20 21:35:00,
2013-09-20 22:40:00,53.6,49.5,30.04,SSW,210,6.0,12.0,86,0.00,CLR,,0.02,0.0,WeatherDisplay:10.37,2013-09-20 21:40:00,
2013-09-20 22:45:00,53.7,49.3,30.04,SSW,211,3.0,10.0,85,0.00,CLR,,0.02,0.0,WeatherDisplay:10.37,2013-09-20 21:45:00,
2013-09-20 22:50:00,53.8,49.4,30.04,SSW,207,3.0,13.0,85,0.00,CLR,,0.02,0.0,WeatherDisplay:10.37,2013-09-20 21:50:00,
2013-09-20 22:55:00,53.9,49.5,30.04,SSW,209,6.0,13.0,85,0.00,CLR,,0.02,0.0,WeatherDisplay:10.37,2013-09-20 21:55:00,
2013-09-20 23:00:00,53.9,49.5,30.03,SW,217,5.0,10.0,85,0.00,CLR,,0.02,0.0,WeatherDisplay:10.37,2013-09-20 22:00:00,
2013-09-20 23:05:00,53.9,49.5,30.04,SW,216,6.0,12.0,85,0.00,CLR,,0.02,0.0,WeatherDisplay:10.37,2013-09-20 22:05:00,
2013-09-20 23:10:00,53.9,49.5,30.04,SSW,204,6.0,12.0,85,0.00,CLR,,0.02,0.0,WeatherDisplay:10.37,2013-09-20 22:10:00,
2013-09-20 23:15:00,53.9,49.5,30.04,SSW,208,5.0,13.0,85,0.00,CLR,,0.02,0.0,WeatherDisplay:10.37,2013-09-20 22:15:00,
2013-09-20 23:20:00,53.9,49.5,30.04,SSW,207,3.0,8.0,85,0.00,CLR,,0.02,0.0,WeatherDisplay:10.37,2013-09-20 22:20:00,
2013-09-20 23:25:00,53.9,49.8,30.04,SSW,200,3.0,7.0,86,0.00,CLR,,0.02,0.0,WeatherDisplay:10.37,2013-09-20 22:25:00,
2013-09-20 23:30:00,53.8,49.7,30.04,South,187,3.0,7.0,86,0.00,CLR,,0.02,0.0,WeatherDisplay:10.37,2013-09-20 22:30:00,
2013-09-20 23:35:00,53.7,49.6,30.05,South,186,2.0,5.0,86,0.00,CLR,,0.02,0.0,WeatherDisplay:10.37,2013-09-20 22:35:00,
2013-09-20 23:40:00,53.7,49.6,30.04,SSW,192,2.0,7.0,86,0.00,CLR,,0.02,0.0,WeatherDisplay:10.37,2013-09-20 22:40:00,
2013-09-20 23:45:00,53.6,49.5,30.04,SSW,194,2.0,6.0,86,0.00,CLR,,0.02,0.0,WeatherDisplay:10.37,2013-09-20 22:45:00,
2013-09-20 23:50:00,53.6,49.8,30.04,South,187,1.0,8.0,87,0.00,CLR,,0.02,0.0,WeatherDisplay:10.37,2013-09-20 22:50:00,
2013-09-20 23:55:00,53.5,49.7,30.05,South,185,0.0,6.0,87,0.00,CLR,,0.02,0.0,WeatherDisplay:10.37,2013-09-20 22:55:00,